Location: Aleksandria
(48.6657°N, 33.1137°E)
Time: 14:49:08
(UTC+02:00)

BlueWalker 3 - Pass Details

Date: 02 December 2023
Orbit: 485 x 500 km, 53.2° (Epoch: 27 February)

Event Time Altitude Azimuth Distance (km) Brightness Sun altitude
Exits shadow 04:28:41 36° 96° (E) 812 3.4 -27.3°
Drops below altitude 10° 04:31:03 10° 106° (ESE) 1,695 5.6 -26.9°
Sets 04:33:14 0° 109° (ESE) 2,571 6.7 -26.6°
